This is the latest recevied weather packets stored in our database for station/object DL9GJ-6. If no packets are shown the sender has not sent any weather packets the latest 1 day(s).
| Time | Temp. | Humidity | Pressure | Rain* | Wind** | Luminosity | Snow |
|---|---|---|---|---|---|---|---|
| 1778099901 | 9.44° C | 90% | 1009.2 hPa | 0 mm | - | 0 W/m² | - |
| 1778099540 | 9.44° C | 90% | 1009.2 hPa | 0 mm | - | 0 W/m² | - |
| 1778099180 | 9.44° C | 90% | 1009.2 hPa | 0 mm | - | 0 W/m² | - |
| 1778098820 | 9.44° C | 90% | 1009.3 hPa | 0 mm | - | 0 W/m² | - |
| 1778098460 | 9.44° C | 90% | 1009.2 hPa | 0 mm | - | 0 W/m² | - |
| 1778098101 | 9.44° C | 90% | 1009.2 hPa | 0 mm | - | 0 W/m² | - |
| 1778097741 | 9.44° C | 90% | 1009.1 hPa | 0 mm | - | 0 W/m² | - |
| 1778094499 | 9.44° C | 91% | 1008.4 hPa | 0 mm | - | 0 W/m² | - |
| 1778093420 | 9.44° C | 91% | 1008.2 hPa | 0 mm | - | 0 W/m² | - |
| 1778092700 | 9.44° C | 91% | 1008 hPa | 0 mm | - | 0 W/m² | - |
| 1778092341 | 9.44° C | 91% | 1007.9 hPa | 0 mm | - | 5 W/m² | - |
| 1778091981 | 10° C | 91% | 1007.9 hPa | 0 mm | - | 9 W/m² | - |
| 1778091621 | 10° C | 91% | 1007.9 hPa | 0 mm | - | 14 W/m² | - |
| 1778091260 | 10° C | 91% | 1007.8 hPa | 0 mm | - | 19 W/m² | - |
| 1778088008 | 10° C | 91% | 1007.1 hPa | 0.25 mm | - | 32 W/m² | - |
| 1778086940 | 10° C | 91% | 1007.1 hPa | 0.25 mm | - | 36 W/m² | - |
| 1778086221 | 10° C | 91% | 1006.7 hPa | 0.25 mm | - | 58 W/m² | - |
| 1778085861 | 10° C | 91% | 1006.8 hPa | 0.51 mm | - | 74 W/m² | - |
| 1778085501 | 10° C | 91% | 1006.7 hPa | 2.54 mm | - | 79 W/m² | - |
| 1778085140 | 10° C | 91% | 1006.6 hPa | 3.56 mm | - | 74 W/m² | - |
| 1778081540 | 11.67° C | 89% | 1006.2 hPa | 8.64 mm | - | 19 W/m² | - |
| 1778081181 | 11.67° C | 88% | 1006 hPa | 8.64 mm | - | 12 W/m² | - |
| 1778080820 | 12.22° C | 85% | 1005.8 hPa | 8.13 mm | - | 9 W/m² | - |
| 1778080461 | 15.56° C | 71% | 1005.1 hPa | 0.25 mm | - | 10 W/m² | - |
| 1778080101 | 16.11° C | 68% | 1004.2 hPa | 0 mm | - | 29 W/m² | - |
* Rain latest hour (hover to see other rain measurements)
** Current wind speed in m/s (hover to see current wind gust speed)